Lapse_Rate
6.4 5.9 5.8 5.8 5.7 5.7 5.6 5.6 5.6 5.5 5.5 5.6 5.7 5.7 5.9 6.0 6.2 6.2 6.5 6.6 6.7 6.8 6.9 7.1 7.4 7.6 7.7 7.8 7.8 7.6 7.4 7.3 7.3 7.1 7.0 7.0 6.9 7.0 6.9 6.6 6.6 6.5 6.5
6.0 5.9 5.8 5.8 5.7 5.5 5.4 5.3 5.3 5.6 5.8 6.0 6.0 6.0 6.2 6.5 6.5 6.7 6.9 6.7 6.9 6.9 6.7 6.7 6.8 7.0 7.2 7.6 7.8 7.8 7.7 7.7 7.3 7.2 7.1 7.0 6.9 6.8 6.9 6.9 6.6 6.6 6.5
6.0 5.9 5.8 5.8 5.7 5.7 5.8 5.9 6.0 6.1 6.2 6.3 6.4 6.6 6.6 6.8 6.8 6.9 6.8 6.7 6.9 6.8 6.9 6.9 6.9 6.8 6.8 6.9 7.2 7.5 7.6 7.4 7.4 7.3 6.8 6.7 6.7 6.5 6.5 6.5 6.4 6.2 6.2
5.9 5.8 6.0 6.1 6.1 6.1 6.2 6.3 6.3 6.4 6.5 6.8 7.0 6.8 6.8 6.8 6.7 6.7 6.8 6.8 6.9 6.9 7.0 7.2 7.2 7.3 7.5 7.7 7.7 7.5 7.3 7.4 7.6 7.7 7.2 7.2 6.5 6.3 6.3 6.4 6.2 6.2 6.0
6.1 6.3 6.3 6.3 6.6 6.5 6.4 6.5 6.7 6.8 7.0 7.1 7.2 7.1 6.9 6.7 6.7 6.9 7.1 7.0 6.9 6.9 6.8 6.9 6.8 6.9 6.9 7.1 7.1 7.0 6.8 6.7 6.5 5.5 5.2 6.2 6.7 6.6 6.4 5.6 5.6 6.1 6.0
6.4 6.4 6.5 6.6 6.6 6.5 6.5 6.7 6.9 7.0 7.3 7.3 7.1 6.9 6.8 6.8 6.8 7.0 7.0 7.1 7.0 6.7 6.3 6.1 6.2 6.1 6.0 5.8 5.8 5.6 5.1 4.7 4.0 3.7 3.5 3.3 3.9 4.4 5.1 6.0 5.5 5.3 5.6
6.7 6.6 6.5 6.5 6.6 6.4 6.5 6.7 6.9 7.1 7.0 7.0 6.9 6.9 6.8 6.9 7.0 6.9 6.9 6.8 6.7 6.4 6.0 5.9 5.7 5.5 5.2 4.9 4.8 4.8 4.6 4.3 3.9 3.7 3.2 3.2 2.9 3.1 3.4 4.0 5.1 5.2 5.1
6.5 6.5 6.7 6.7 6.5 6.5 6.4 6.5 6.6 6.5 6.6 6.7 6.8 6.8 6.8 7.0 7.1 7.0 6.8 6.7 6.6 6.4 6.1 5.8 5.6 5.3 5.0 4.9 4.7 4.5 4.5 4.2 4.1 3.8 3.6 3.3 3.0 2.6 2.9 3.0 3.2 4.4 4.8
6.4 6.5 6.5 6.4 6.1 6.1 6.2 6.4 6.4 6.4 6.5 6.6 6.6 6.5 6.6 6.7 6.7 6.8 6.9 6.9 6.8 6.4 5.9 5.7 5.4 4.9 4.8 4.9 4.7 4.3 3.9 3.8 3.7 3.8 4.3 4.3 4.2 3.7 2.9 3.1 3.0 2.9 3.6
6.2 6.2 6.2 6.3 6.4 6.2 6.5 6.6 6.8 6.6 6.7 6.4 6.3 6.2 6.2 6.1 6.0 6.3 6.5 6.4 6.0 5.4 4.8 4.5 4.2 4.1 4.4 4.4 4.2 4.2 4.2 4.6 4.7 4.9 5.1 5.1 5.0 4.6 3.9 2.8 3.5 3.1 2.8
6.2 6.2 6.1 6.0 5.8 5.9 6.0 6.1 6.5 6.3 6.5 6.1 6.0 5.9 5.9 6.0 5.9 5.9 6.4 5.7 5.2 4.6 4.3 4.1 3.6 3.9 4.1 4.2 4.2 4.8 5.5 5.7 5.7 5.5 5.7 5.7 5.3 5.3 5.1 3.6 2.9 4.2 3.5
6.0 5.9 5.8 5.8 5.9 5.8 5.8 6.1 6.2 6.2 6.0 5.8 5.6 5.5 5.5 5.7 5.8 5.5 5.6 5.4 5.0 4.6 4.2 4.1 4.1 4.1 4.4 4.4 5.1 5.8 6.2 6.4 6.5 6.3 6.0 6.0 6.1 6.1 6.0 5.6 4.3 4.0 4.9
5.8 5.9 6.0 6.2 5.9 5.9 5.7 5.7 5.9 5.6 5.7 5.6 5.4 5.3 5.3 5.3 5.2 5.2 5.0 4.9 4.7 4.6 4.5 4.5 4.2 4.2 4.4 5.0 5.9 6.5 6.9 7.0 6.8 6.6 6.3 6.2 6.3 6.4 6.3 6.2 5.9 5.4 5.2
5.9 6.1 5.9 6.1 6.1 6.0 5.6 5.4 5.5 5.6 5.5 5.1 5.0 5.2 5.3 5.1 5.0 4.6 4.5 4.5 4.7 4.6 4.7 4.5 4.3 4.6 5.5 6.0 6.6 6.9 7.0 6.9 6.9 6.9 6.7 6.3 6.2 6.3 6.3 6.3 6.2 6.0 6.0
6.1 6.2 6.3 6.4 6.4 6.0 5.4 5.4 5.4 5.4 5.2 5.0 4.8 5.1 5.0 4.8 4.7 4.6 4.7 4.8 4.4 4.2 4.3 4.3 4.7 5.4 6.1 6.7 6.8 6.9 6.9 6.9 6.9 6.7 6.5 6.3 6.3 6.2 6.2 6.1 6.2 6.2 6.1
6.3 6.3 5.9 6.2 6.1 5.8 4.6 4.8 5.1 4.9 4.8 4.6 4.6 4.7 4.6 4.6 4.6 5.0 4.8 4.3 4.1 4.3 4.5 4.6 5.2 5.9 6.4 6.8 6.7 6.7 6.6 6.6 6.5 6.4 6.4 6.4 6.3 6.1 6.2 6.2 6.2 6.2 6.1
6.3 6.1 6.1 5.9 5.8 5.2 4.8 5.0 4.7 4.4 4.5 4.7 4.8 4.5 4.5 4.5 5.1 4.7 4.4 4.3 4.3 4.5 4.7 5.2 5.9 6.3 6.8 6.7 6.6 6.4 6.2 6.2 6.2 6.2 6.2 6.2 6.3 6.1 6.0 5.9 5.9 6.0 6.1
6.3 6.1 5.9 5.7 5.0 4.6 4.5 4.2 4.2 4.1 4.2 4.2 4.2 4.2 4.6 5.1 4.7 4.5 4.6 4.4 4.5 4.7 5.2 6.0 6.4 6.8 7.0 6.8 6.3 6.3 6.2 6.2 6.1 6.2 6.3 6.4 6.3 6.2 6.1 6.0 5.8 5.7 5.8
6.0 6.1 5.7 4.7 4.3 3.9 3.6 3.7 3.6 3.7 4.2 4.1 4.4 5.0 5.0 4.7 4.7 4.7 4.7 4.7 4.9 5.3 6.0 6.5 6.8 7.0 6.8 6.3 6.2 6.0 6.0 6.1 6.3 6.3 6.4 6.4 6.3 6.2 6.3 6.1 5.7 5.6 5.5
5.9 5.8 5.3 4.4 3.5 3.6 4.3 3.8 3.8 3.8 3.8 4.4 4.9 5.0 4.7 4.8 5.0 5.0 5.0 5.2 5.9 6.3 6.6 6.8 6.9 6.9 6.6 6.3 5.9 5.8 6.3 6.2 6.5 6.6 6.4 6.3 6.3 6.0 5.9 5.6 5.3 5.2 5.1
6.1 5.7 4.7 4.4 4.5 4.8 4.2 4.5 4.2 4.2 4.7 5.2 5.0 4.8 5.0 5.0 5.2 5.3 5.6 6.0 6.4 6.6 6.9 7.0 7.2 7.0 6.7 6.2 6.0 5.9 6.0 6.3 6.7 6.3 6.2 6.2 5.7 5.7 5.6 5.3 5.1 4.9 4.9
6.2 5.6 4.9 4.9 5.2 4.8 4.7 4.4 4.7 5.3 5.3 5.1 4.7 5.1 5.2 5.5 5.7 6.0 6.1 6.5 6.8 6.9 7.2 7.3 7.2 6.8 6.5 6.0 6.0 5.9 6.0 6.3 6.9 5.9 6.0 6.2 5.0 5.7 5.4 5.4 5.2 5.1 4.9
5.3 5.0 5.4 5.4 5.0 5.2 5.2 5.3 5.4 5.4 5.0 5.3 5.5 5.6 5.8 6.1 6.4 6.4 6.6 7.0 7.0 7.0 7.1 7.0 6.9 6.5 6.4 6.0 6.1 6.2 6.0 6.2 6.1 5.5 5.4 6.4 5.1 5.5 5.6 5.6 5.6 5.7 5.7
5.5 5.6 5.5 5.7 5.9 5.8 5.8 5.8 5.6 5.8 5.9 6.0 6.0 6.2 6.5 6.5 6.7 6.7 7.0 7.1 7.3 7.3 7.3 7.1 6.8 6.6 6.3 6.1 6.0 6.1 6.3 6.4 6.0 5.4 4.8 6.0 5.1 5.8 5.9 5.9 5.9 6.4 6.7
5.4 5.5 5.8 6.0 6.2 6.2 5.9 6.2 6.6 6.5 6.3 6.3 6.4 6.6 6.6 6.8 6.8 6.9 7.1 7.4 7.6 7.5 7.5 7.3 7.0 6.6 6.2 6.0 5.9 6.1 6.1 6.2 6.2 5.7 5.2 5.6 5.9 6.3 6.4 6.3 6.3 6.7 7.2
5.6 5.5 5.4 6.3 6.3 6.3 6.7 6.7 6.7 6.5 6.3 6.4 6.7 6.7 6.8 7.0 6.9 7.1 7.3 7.6 7.7 7.6 7.6 7.5 7.2 6.8 6.4 6.1 5.9 6.0 6.2 6.3 6.1 6.0 5.5 6.2 6.3 6.3 7.2 6.8 6.9 7.1 7.4
Wind_Speed
9 12 13 16 14 13 11 10 12 12 14 15 16 16 14 14 17 18 18 16 6 3 2 5 7 7 8 10 12 14 15 15 16 18 18 19 20 22 22 22 23 24 25
12 11 11 11 11 12 12 15 14 12 13 13 12 14 14 16 17 20 20 16 7 4 5 8 7 6 6 7 9 11 12 11 14 16 17 18 19 21 23 24 23 22 23
14 12 9 8 9 11 15 16 14 15 10 10 9 13 14 14 17 21 19 19 9 4 9 8 7 6 5 5 6 7 8 9 10 11 13 16 17 19 22 23 23 23 22
17 13 9 8 9 14 15 12 6 3 4 4 4 5 8 11 11 15 17 19 16 7 8 14 13 11 9 8 9 9 9 10 8 8 9 13 15 18 21 24 22 22 22
14 15 11 12 16 14 12 6 5 3 3 4 3 4 4 4 6 9 13 17 21 20 15 10 11 9 9 7 8 9 9 11 12 10 14 14 17 17 19 23 24 22 21
15 14 13 13 14 9 5 5 4 4 3 1 2 3 3 2 4 7 9 12 14 13 12 13 13 10 7 9 10 10 11 14 9 9 12 15 15 16 19 21 24 24 23
15 18 13 11 10 5 5 4 2 3 3 2 2 3 2 0 5 3 6 7 8 9 11 13 15 15 11 12 12 13 13 15 13 13 13 14 14 15 19 22 22 27 24
19 15 12 8 10 4 5 3 3 1 0 0 2 1 2 4 3 3 3 2 3 4 8 8 10 11 11 11 11 13 14 14 13 13 15 14 14 15 19 22 23 24 27
14 15 12 10 9 7 3 2 3 3 2 2 2 3 1 3 2 2 2 0 2 2 2 3 7 8 9 10 8 8 10 11 10 8 9 12 15 17 20 22 24 26 27
13 11 11 12 11 8 5 2 3 2 3 3 1 1 1 3 2 4 2 3 3 2 2 2 6 7 7 9 7 9 13 10 11 10 9 12 16 19 21 23 26 28 30
16 17 18 15 11 8 5 4 3 2 2 2 2 1 2 0 2 3 5 3 3 3 2 1 6 9 13 13 11 13 15 14 7 9 14 15 17 20 23 25 27 28 30
6 10 11 11 11 8 4 4 4 2 2 2 2 3 3 3 3 3 3 4 4 4 2 3 5 9 14 18 14 14 7 7 6 10 14 17 19 22 26 27 29 30 32
2 4 11 8 1 8 7 5 4 3 1 1 1 2 2 3 2 3 2 2 3 3 3 2 4 9 12 14 10 9 10 10 11 13 16 19 22 25 28 28 29 29 31
5 7 4 8 8 7 4 3 2 3 4 4 3 1 2 4 3 3 2 2 4 2 1 4 3 6 11 9 11 15 12 14 18 20 21 22 23 26 27 28 28 28 28
5 8 11 7 5 2 2 4 3 2 2 2 1 2 1 2 3 2 2 0 1 2 2 2 2 6 10 15 17 18 18 19 22 21 22 21 21 22 22 24 23 24 26
8 6 6 5 6 4 2 4 3 2 3 1 2 1 1 1 1 1 1 2 2 1 3 1 2 2 9 12 16 19 19 21 20 20 20 22 23 22 23 23 24 24 24
7 5 6 6 5 4 3 5 4 5 4 3 2 3 4 3 3 2 1 2 2 1 3 3 2 3 3 6 15 16 17 17 15 17 19 22 22 22 24 20 18 19 22
7 7 6 6 5 3 3 6 6 5 4 3 3 2 4 2 3 2 2 2 2 2 3 5 3 3 4 8 11 10 13 15 14 17 21 21 23 24 22 19 18 18 19
4 4 5 5 4 6 5 5 6 6 5 5 4 3 5 4 4 3 3 3 2 2 2 2 4 2 3 4 7 8 6 11 14 20 23 23 24 23 23 21 22 21 21
6 6 6 6 6 5 4 6 6 6 5 4 3 2 3 4 4 5 3 2 2 2 2 3 5 5 3 5 4 5 7 5 9 17 21 20 20 19 24 24 23 24 21
4 3 4 4 5 5 5 6 6 6 6 5 3 2 3 5 8 6 3 3 2 1 3 4 5 5 6 6 6 5 6 8 10 7 6 6 9 14 17 19 21 22 21
5 4 4 5 6 3 8 10 8 6 5 4 3 3 4 4 4 8 7 6 4 2 4 2 3 5 6 5 4 6 7 7 6 4 2 11 8 8 12 15 21 23 22
3 3 5 6 7 6 9 11 12 5 5 4 4 4 4 3 6 4 4 2 4 6 4 3 5 4 7 7 8 8 9 7 8 9 5 8 4 7 13 16 22 23 18
3 4 6 6 6 5 11 11 10 5 4 5 5 4 5 5 5 5 4 3 4 4 4 4 4 5 6 8 8 9 10 8 6 7 5 6 4 7 8 14 18 14 10
3 3 4 6 6 5 9 10 9 5 5 6 5 4 5 5 8 8 3 4 4 5 6 8 11 15 17 18 16 6 5 6 8 9 3 4 5 7 6 7 12 12 16
4 4 4 5 6 5 9 11 9 3 4 3 4 5 6 6 10 9 4 4 4 5 4 5 6 10 14 13 15 8 5 6 6 6 0 5 8 5 3 2 2 11 12
Wind_Direction
118 113 106 103 105 106 101 95 83 69 57 52 50 47 57 37 27 28 20 11 333 13 108 126 97 83 70 74 59 49 37 31 21 15 12 14 12 9 2 359 354 352 348
123 115 113 116 109 103 92 82 75 65 55 51 42 47 38 30 31 21 15 10 348 250 127 112 84 79 78 73 67 51 34 37 14 16 16 10 5 5 359 352 347 345 341
128 130 116 103 106 92 86 79 66 61 49 39 42 39 25 27 34 40 38 32 28 87 105 93 42 83 78 48 69 45 26 35 16 34 26 12 358 354 351 345 340 337 336
139 132 113 89 92 89 82 67 61 68 54 44 26 28 29 28 45 42 40 43 45 95 93 66 54 39 24 23 7 1 8 4 355 357 5 360 348 344 343 341 336 331 329
137 121 111 95 98 81 70 76 54 76 52 25 3 36 4 31 47 41 53 54 56 65 56 34 11 0 5 360 351 351 355 351 337 340 336 334 334 331 337 329 329 329 324
132 113 95 96 98 87 72 72 84 50 73 44 35 10 267 49 84 49 54 61 61 63 48 31 24 18 10 7 352 345 334 331 328 324 325 321 318 329 324 329 327 322 326
121 105 109 115 97 81 87 69 77 60 43 19 59 318 315 183 67 81 65 79 62 57 48 47 54 50 27 2 0 350 339 329 320 312 311 307 314 315 316 321 324 320 315
129 132 138 123 121 115 98 80 79 83 208 195 160 153 350 324 321 7 138 167 72 37 41 41 54 56 46 30 6 355 348 330 308 301 302 305 305 306 307 312 316 319 311
147 152 151 124 100 93 99 97 134 149 215 270 200 148 337 248 311 315 344 37 298 26 37 55 46 21 17 7 8 12 11 352 323 308 300 300 301 302 304 305 307 310 312
156 132 120 121 115 113 101 114 132 166 146 248 318 274 168 162 222 314 316 300 334 321 330 3 357 352 347 346 332 337 329 310 289 277 284 293 293 297 302 302 303 303 301
132 133 131 132 126 122 129 108 68 355 166 142 182 287 294 246 180 224 287 287 326 274 271 281 339 343 336 327 306 314 309 303 269 282 290 297 302 300 299 299 298 298 297
110 119 122 119 123 108 92 72 62 113 140 193 192 207 204 197 229 227 247 249 227 260 244 282 317 317 313 308 301 320 343 2 333 312 305 305 303 300 299 297 296 294 293
105 152 135 111 81 96 82 54 36 25 6 149 321 275 245 239 206 217 191 236 262 262 249 249 266 297 320 338 336 352 335 336 330 319 311 306 302 299 294 292 291 288 286
145 127 111 130 140 119 97 65 74 94 100 88 63 12 289 279 252 207 223 233 279 287 281 243 268 342 358 358 339 331 336 329 319 311 308 306 299 293 290 288 286 282 281
135 153 149 150 129 121 94 83 136 125 103 112 127 339 309 343 10 358 40 87 230 301 280 313 340 1 356 343 335 324 325 318 314 312 306 302 299 294 295 293 290 290 286
132 161 155 166 180 169 127 140 162 143 119 183 178 150 184 216 186 138 228 260 177 187 276 267 270 314 326 319 318 315 310 315 308 306 306 305 302 298 301 295 294 290 284
165 180 200 190 190 189 167 163 180 169 176 201 219 219 251 232 221 241 127 123 132 151 252 290 272 289 292 311 312 311 311 304 302 313 315 312 314 308 301 297 301 302 286
213 215 190 185 193 196 203 191 192 179 199 208 193 212 244 239 208 185 149 166 173 231 207 266 262 296 296 305 296 302 304 309 312 313 312 314 309 306 303 298 296 292 288
192 185 164 187 206 223 218 192 189 192 197 193 209 237 278 273 239 186 202 212 196 211 228 263 290 270 272 292 302 303 293 302 302 309 304 297 296 299 301 304 301 295 287
149 164 181 202 224 240 218 187 180 187 185 172 177 250 271 224 204 217 227 215 228 264 268 273 284 289 278 292 277 296 305 301 299 303 298 294 297 297 298 297 293 292 285
144 193 225 243 254 234 196 185 182 178 181 187 220 265 211 228 233 208 165 192 195 265 278 279 290 295 304 308 302 298 293 300 299 280 279 281 285 293 286 288 285 284 280
29 20 345 307 274 242 206 188 171 183 187 188 240 270 257 258 165 157 149 150 167 244 260 236 285 291 295 319 296 294 293 302 309 266 332 302 291 284 280 277 278 281 281
28 346 312 294 281 254 196 185 179 177 184 201 215 243 251 191 177 177 183 206 269 293 278 254 281 274 301 298 293 294 286 278 279 290 290 289 287 282 285 285 286 291 288
270 276 280 289 286 241 202 195 174 174 191 208 228 234 229 228 211 196 196 253 278 292 280 282 277 282 277 284 277 286 287 289 276 284 251 280 299 280 280 277 287 291 265
286 270 279 303 293 256 203 197 179 192 206 220 218 224 239 218 206 200 214 264 277 279 296 294 307 307 311 312 314 315 312 315 311 305 248 262 290 285 281 277 282 276 295
252 283 298 278 273 253 215 211 198 173 224 226 234 243 237 201 196 207 210 234 269 277 277 291 295 305 308 302 312 297 291 301 302 310 259 309 296 289 297 268 279 296 312